Weather History for EHGR - August, 2012

Change the Weather History Date:

Friday, August 17, 2012

  Actual Average Record
Temperature  
Mean Temperature 72 °F -  
Max Temperature 84 °F 68 °F 84 °F (2012)
Min Temperature 60 °F 51 °F 50 °F (1996)
Cooling Degree Days 7    
Growing Degree Days 22 (Base 50)    
Moisture  
Dew Point 56 °F    
Average Humidity 59    
Maximum Humidity 82    
Minimum Humidity 35    
Precipitation  
Precipitation 0.00 in - - ()
Sea Level Pressure  
Sea Level Pressure 30.05 in    
Wind  
Wind Speed 5 mph ()    
Max Wind Speed 13 mph    
Max Gust Speed -    
Visibility 6.2 miles    
Events      
Averages and records for this station are not official NWS values.
T = Trace of Precipitation, MM = Missing Value Source: Averaged Metar Reports

Daily Weather History Graph

Daily Weather History Graph

Search for Another Location

Airport or City:

Trip Planner

Search our weather history database for the weather conditions in past years. The results will help you decide how hot, cold, wet, or windy it might be!

Date:

Astronomy

Aug. 17, 2012 Rise Set
Actual Time 6:29 AM CEST 8:58 PM CEST
Civil Twilight 5:51 AM CEST 9:35 PM CEST
Nautical Twilight 5:04 AM CEST 10:22 PM CEST
Astronomical Twilight 4:08 AM CEST 11:17 PM CEST
Moon 6:20 AM CEST (8/17) 8:22 PM CEST (8/17)
Length of Visible Light 15h 43m
Length of Day
14h 28m
Waning Crescent, 0% of the Moon is Illuminated
Aug 17
Waning Crescent
Aug 17
New
Aug 24
First Quarter
Aug 31
Full
Sep 8
Last Quarter

Hourly Weather History & Observations

Time (CEST) Temp. Heat Index Dew Point Humidity Pressure Visibility Wind Dir Wind Speed Gust Speed Precip Events Conditions
12:25 AM 64.4 °F - 57.2 °F 77% 30.09 in 6.2 mi SSE 1.2 mph - N/A   Overcast
12:55 AM 62.6 °F - 57.2 °F 82% 30.09 in 6.2 mi SE 1.2 mph - N/A   Scattered Clouds
1:25 AM 62.6 °F - 57.2 °F 82% 30.09 in 6.2 mi NE 1.2 mph - N/A   Overcast
1:55 AM 62.6 °F - 57.2 °F 82% 30.06 in 6.2 mi SSE 2.3 mph - N/A   Overcast
2:25 AM 64.4 °F - 57.2 °F 77% 30.06 in 6.2 mi SE 6.9 mph - N/A   Overcast
2:55 AM 64.4 °F - 57.2 °F 77% 30.06 in 6.2 mi SSE 4.6 mph - N/A   Overcast
3:25 AM 62.6 °F - 55.4 °F 77% 30.06 in 6.2 mi SSE 2.3 mph - N/A   Overcast
3:55 AM 62.6 °F - 57.2 °F 82% 30.06 in 6.2 mi SSE 2.3 mph - N/A   Overcast
4:25 AM 60.8 °F - 55.4 °F 82% 30.06 in 6.2 mi SE 4.6 mph - N/A   Overcast
4:55 AM 60.8 °F - 55.4 °F 82% 30.06 in 6.2 mi SSE 3.5 mph - N/A   Overcast
5:25 AM 60.8 °F - 55.4 °F 82% 30.06 in 6.2 mi SSE 3.5 mph - N/A   Scattered Clouds
5:55 AM 60.8 °F - 55.4 °F 82% 30.06 in 6.2 mi SE 4.6 mph - N/A   Scattered Clouds
6:25 AM 60.8 °F - 55.4 °F 82% 30.06 in 6.2 mi SE 5.8 mph - N/A   Unknown
6:55 AM 60.8 °F - 55.4 °F 82% 30.06 in 6.2 mi SE 5.8 mph - N/A   Unknown
7:25 AM 62.6 °F - 55.4 °F 77% 30.06 in 6.2 mi SE 8.1 mph - N/A   Partly Cloudy
7:55 AM 64.4 °F - 55.4 °F 73% 30.06 in 6.2 mi South 6.9 mph - N/A   Overcast
8:25 AM 66.2 °F - 55.4 °F 68% 30.06 in 6.2 mi SSE 5.8 mph - N/A   Mostly Cloudy
8:29 AM 66.2 °F - 55.4 °F 68% 30.06 in 6.2 mi SE 5.8 mph - N/A   Scattered Clouds
8:55 AM 69.8 °F - 55.4 °F 60% 30.06 in 6.2 mi SSE 5.8 mph - N/A   Overcast
9:25 AM 71.6 °F - 57.2 °F 60% 30.06 in 6.2 mi SSE 5.8 mph - N/A   Mostly Cloudy
9:55 AM 73.4 °F - 55.4 °F 53% 30.06 in 6.2 mi South 8.1 mph - N/A   Scattered Clouds
9:58 AM 71.6 °F - 55.4 °F 57% 30.06 in 6.2 mi South 9.2 mph - N/A   Overcast
10:25 AM 75.2 °F - 57.2 °F 53% 30.06 in 6.2 mi SSE 8.1 mph - N/A   Partly Cloudy
10:55 AM 75.2 °F - 55.4 °F 50% 30.06 in 6.2 mi South 10.4 mph - N/A   Partly Cloudy
11:25 AM 77.0 °F - 55.4 °F 47% 30.06 in 6.2 mi South 9.2 mph - N/A   Overcast
11:55 AM 77.0 °F - 53.6 °F 44% 30.06 in 6.2 mi South 10.4 mph - N/A   Overcast
12:25 PM 78.8 °F - 53.6 °F 42% 30.06 in 6.2 mi South 10.4 mph - N/A   Overcast
12:55 PM 78.8 °F - 55.4 °F 44% 30.06 in 6.2 mi South 10.4 mph - N/A   Overcast
1:25 PM 78.8 °F - 55.4 °F 44% 30.06 in 6.2 mi South 10.4 mph - N/A   Overcast
1:55 PM 80.6 °F 80.5 °F 55.4 °F 42% 30.06 in 6.2 mi South 10.4 mph - N/A   Partly Cloudy
2:25 PM 80.6 °F 80.3 °F 53.6 °F 39% 30.06 in 6.2 mi SSE 10.4 mph - N/A   Unknown
2:55 PM 82.4 °F 81.7 °F 55.4 °F 39% 30.06 in 6.2 mi SSE 11.5 mph - N/A   Unknown
3:25 PM 82.4 °F 81.7 °F 55.4 °F 39% 30.06 in 6.2 mi South 11.5 mph - N/A   Unknown
3:55 PM 82.4 °F 81.4 °F 53.6 °F 37% 30.04 in 6.2 mi SSE 10.4 mph - N/A   Partly Cloudy
4:04 PM 82.4 °F 81.4 °F 53.6 °F 37% 30.04 in 6.2 mi South 11.5 mph - N/A   Unknown
4:25 PM 82.4 °F 81.4 °F 53.6 °F 37% 30.04 in 6.2 mi SSE 12.7 mph - N/A   Unknown
4:55 PM 84.2 °F 82.8 °F 53.6 °F 35% 30.04 in 6.2 mi SSE 11.5 mph - N/A   Unknown
5:25 PM 84.2 °F 83.0 °F 55.4 °F 37% 30.04 in 6.2 mi South 10.4 mph - N/A   Unknown
5:55 PM 82.4 °F 81.4 °F 53.6 °F 37% 30.04 in 6.2 mi South 10.4 mph - N/A   Unknown
6:25 PM 84.2 °F 83.0 °F 55.4 °F 37% 30.04 in 6.2 mi South 9.2 mph - N/A   Unknown
6:55 PM 82.4 °F 81.7 °F 55.4 °F 39% 30.04 in 6.2 mi SSE 8.1 mph - N/A   Unknown
7:25 PM 82.4 °F 81.7 °F 55.4 °F 39% 30.04 in 6.2 mi South 8.1 mph - N/A   Unknown
7:55 PM 80.6 °F 80.8 °F 57.2 °F 45% 30.04 in 6.2 mi SSE 5.8 mph - N/A   Unknown
8:25 PM 78.8 °F - 59.0 °F 51% 30.04 in 6.2 mi SE 4.6 mph - N/A   Unknown
8:55 PM 75.2 °F - 59.0 °F 57% 30.04 in 6.2 mi SE 5.8 mph - N/A   Unknown
9:25 PM 73.4 °F - 59.0 °F 61% 30.04 in 6.2 mi SSE 2.3 mph - N/A   Unknown
9:55 PM 71.6 °F - 59.0 °F 64% 30.04 in 6.2 mi SSE 3.5 mph - N/A   Unknown
10:25 PM 71.6 °F - 59.0 °F 64% 30.04 in 6.2 mi South 2.3 mph - N/A   Unknown
10:55 PM 71.6 °F - 59.0 °F 64% 30.04 in 6.2 mi South 3.5 mph - N/A   Unknown
11:25 PM 69.8 °F - 59.0 °F 68% 30.04 in 6.2 mi SSE 2.3 mph - N/A   Unknown
11:55 PM 69.8 °F - 59.0 °F 68% 30.04 in 6.2 mi South 2.3 mph - N/A   Unknown